Cloud_Cover
4 0 5 5 4 2 0 0 0 0 0 0 0 0 0 0 0 0 0 0 0 0
37 6 0 5 5 5 4 0 0 0 0 0 0 0 0 0 0 0 0 0 0 0
98 44 5 14 35 5 5 5 5 0 0 0 0 0 0 0 0 0 0 0 0 0
100 99 26 5 33 80 32 4 4 3 0 0 0 0 1 3 5 3 4 4 0 4
8 38 67 100 68 5 55 52 5 5 5 20 91 54 16 11 58 5 1 0 18 8
24 50 54 44 72 100 57 25 44 5 89 100 100 95 69 40 5 6 10 7 65 30
4 98 100 62 18 64 86 96 97 97 79 100 78 94 96 64 55 98 100 99 88 26
0 39 98 53 86 94 75 89 52 100 100 100 100 87 100 100 100 100 100 100 100 100
0 0 27 100 83 54 79 89 65 39 100 95 100 100 100 89 100 100 100 100 100 100
0 0 0 51 99 100 79 100 100 58 66 68 96 100 100 100 100 100 100 100 100 100
0 0 0 2 49 95 97 96 26 38 99 64 56 99 100 82 94 100 95 96 100 91
0 0 0 0 0 1 8 28 100 99 99 50 71 100 100 100 93 73 90 100 98 30
0 0 0 0 0 0 0 13 5 13 28 98 93 100 100 100 100 100 100 100 100 76
0 0 0 0 0 0 0 4 33 49 35 62 34 100 100 100 100 100 100 100 100 100